Pagina principale
METAR-TAF:

METAR-TAF

Aeroporti :

Digione, Francia

latitudine: 47-16N, longitudine: 005-05E, altezza: 222 m

Osservazione

Il bollettino è stato emesso 16 minuti fa, alle 08:30 UTC
Vento 4 kt da sud
Temperature 3°C
Umidità 93%
Pressione 1014 hPa
Visibilità 10 km o più

METAR: LFSD 110830Z AUTO 19004KT 9999 ///TCU 03/02 Q1014

Ora: 09:46 (08:46 UTC)


TAF: mancante

Osservazioni e previsioni meteorologiche di più di 4000 aeroporti (messaggi METAR e TAF).

Le stazioni disponibili sono rappresentate dai dischi gialli e rossi sulla carta.

Puntare il mouse per vedere il nome della stazione.

Clicca sopra per visualizzare le osservazioni e previsioni meteorologiche.

Per cambiare la mappa : fare clic sui pulsanti verdi con una croce nera per ingrandire, il pulsante verde con un trattino per diminuire, o sulla freccia verde per le mappe adiacenti.


METAR-TAF: